CDT,Max TemperatureF,Mean TemperatureF,Min TemperatureF,Max Dew PointF,MeanDew PointF,Min DewpointF,Max Humidity, Mean Humidity, Min Humidity, Max Sea Level PressureIn, Mean Sea Level PressureIn, Min Sea Level PressureIn, Max VisibilityMiles, Mean VisibilityMiles, Min VisibilityMiles, Max Wind SpeedMPH, Mean Wind SpeedMPH, Max Gust SpeedMPH,PrecipitationIn, CloudCover, Events, WindDirDegrees
2012-10-1,64,60,57,54,51,48,82,73,67,29.78,29.69,29.62,10,8,2,20,8,29,0.40,8,,12
2012-10-2,73,64,55,50,47,45,72,59,38,29.96,29.84,29.73,10,10,10,10,7,,0.00,3,,314
2012-10-3,78,63,48,55,50,41,77,60,42,30.15,30.05,29.96,10,10,10,10,3,18,0.00,1,,173
2012-10-4,82,68,53,59,53,46,77,60,37,30.26,30.19,30.14,10,10,8,10,4,,0.00,0,,185
2012-10-5,80,63,46,61,53,37,82,67,48,30.18,30.10,29.96,10,10,4,18,6,29,0.56,4,Thunderstorm,210
2012-10-6,57,50,42,37,35,30,76,60,36,30.25,30.20,30.14,10,10,5,14,10,21,0.00,5,,10
2012-10-7,57,50,42,36,34,30,70,55,41,30.28,30.23,30.19,10,10,10,12,7,,0.00,3,,353
2012-10-8,64,53,42,37,35,32,76,53,34,30.27,30.20,30.14,10,10,10,8,4,,0.00,3,,26
2012-10-9,66,52,39,45,39,30,76,60,42,30.17,30.10,30.00,10,10,9,10,2,16,0.00,1,,184
2012-10-10,62,53,44,48,38,30,67,51,31,30.27,30.19,30.04,10,10,10,17,7,22,0.00,3,,335
2012-10-11,59,50,42,46,37,28,72,58,45,30.32,30.25,30.20,10,10,10,7,4,,0.00,7,,121
2012-10-12,62,58,55,54,51,48,82,76,72,30.33,30.25,30.18,10,8,2,10,5,,0.06,8,Thunderstorm,65
2012-10-13,80,70,60,63,58,54,82,67,48,30.24,30.13,29.98,10,6,0,12,7,21,0.00,5,,156
2012-10-14,75,68,60,61,56,48,77,64,53,29.98,29.93,29.84,10,10,10,28,11,38,0.28,4,,221
2012-10-15,73,60,48,48,45,41,82,59,33,30.07,30.01,29.97,10,10,10,9,4,,0.00,0,,277
2012-10-16,77,64,51,52,46,43,72,57,36,30.00,29.90,29.80,10,10,10,12,4,20,0.00,0,,188
2012-10-17,78,66,55,57,51,46,77,58,44,29.82,29.68,29.47,10,10,5,24,8,33,1.27,4,Thunderstorm,179
2012-10-18,68,59,50,52,40,30,77,54,26,29.81,29.76,29.69,10,10,10,23,7,30,0.00,0,,244
2012-10-19,62,56,48,37,36,30,66,46,36,29.88,29.77,29.70,10,10,9,16,9,25,0.00,5,,261
2012-10-20,69,56,42,43,39,34,76,59,35,29.99,29.93,29.86,10,10,10,10,2,16,0.00,0,,225
2012-10-21,78,62,46,54,46,37,76,55,41,30.06,30.01,29.96,10,10,2,10,5,16,0.00,2,,159
2012-10-22,82,70,59,55,49,46,63,49,32,30.14,30.08,30.04,10,10,10,12,6,22,0.00,0,,176
2012-10-23,80,68,57,57,50,45,67,52,37,30.10,30.04,30.00,10,10,9,13,5,18,0.00,0,,176
2012-10-24,82,70,57,61,53,48,72,59,45,30.11,30.05,29.99,10,10,9,9,5,16,0.00,1,,172
2012-10-25,80,70,60,61,55,52,72,59,45,30.01,29.97,29.93,10,10,9,12,6,20,0.00,2,,172
2012-10-26,62,52,42,50,37,32,76,69,57,30.23,30.18,30.02,10,9,3,21,14,26,0.03,8,,7
2012-10-27,55,47,39,34,31,28,65,54,38,30.22,30.17,30.11,10,10,10,18,12,23,0.00,1,,358
2012-10-28,55,46,37,34,30,27,70,55,41,30.22,30.17,30.13,10,10,10,16,10,23,0.00,0,,348
2012-10-29,55,46,37,32,27,23,65,48,31,30.27,30.18,30.09,10,10,10,17,8,24,0.00,0,,338
2012-10-30,59,48,37,27,25,21,65,43,27,30.09,29.98,29.90,10,10,10,16,7,21,0.00,0,,298
2012-10-31,59,47,35,30,27,25,65,48,29,30.01,29.97,29.94,10,10,9,12,4,,0.00,1,,289